Helicity
174 125 137 131 125 111 106 104 92 85 86 100 119 87 80 81 70 77 77 77 76 68 64 67 79 116 103
139 130 109 115 121 119 109 100 87 68 61 98 99 80 79 69 77 74 78 71 62 61 78 95 108 103 108
176 157 155 125 115 124 102 68 68 79 77 60 64 73 70 76 70 68 74 67 78 93 103 105 101 106 104
192 155 108 126 129 121 100 73 76 84 63 53 59 70 63 48 59 76 84 91 97 104 109 104 100 96 79
139 120 127 122 110 95 74 72 69 68 67 69 85 76 66 61 78 87 89 98 104 100 102 97 85 80 65
140 161 143 106 75 68 72 66 60 80 84 83 74 73 81 81 78 70 84 98 102 94 90 81 73 67 51
142 109 95 72 72 63 63 62 60 84 75 64 86 86 79 81 91 96 97 97 84 76 71 61 63 65 59
103 100 104 91 78 74 69 63 59 62 66 54 79 93 100 98 100 106 87 80 62 49 46 55 58 59 54
131 126 108 98 75 52 71 61 52 70 79 61 70 104 101 92 104 79 48 43 37 38 43 44 50 63 78
82 87 76 77 84 80 61 60 52 41 84 83 102 105 106 72 81 69 61 35 31 30 28 39 48 92 94
58 54 54 58 55 51 53 56 61 64 88 98 107 99 104 103 85 59 59 84 81 69 50 56 38 42 84
43 42 50 56 54 52 57 53 57 68 67 77 106 81 85 106 107 108 76 95 84 103 119 79 53 19 21
52 60 61 57 56 57 62 78 70 79 77 60 59 53 74 103 139 132 96 95 59 117 125 128 120 95 79
62 62 59 61 68 78 86 100 113 113 85 62 48 48 79 101 99 128 110 112 136 122 117 152 155 100 92
61 63 69 74 84 84 103 113 118 94 78 59 47 48 61 74 112 110 124 126 125 128 107 158 135 102 -10
71 81 84 79 92 106 113 111 99 80 60 42 28 27 47 39 45 93 120 126 129 132 100 102 182 76 34
84 85 85 100 115 119 105 90 86 76 56 39 42 41 49 78 144 96 107 102 124 157 108 118 130 111 57
Wind_Speed
40 38 34 36 38 37 42 49 54 57 57 53 58 63 64 66 65 65 70 72 75 76 77 79 81 84 88
37 38 35 28 31 38 43 48 51 56 55 51 57 62 65 63 64 68 70 72 72 73 77 81 83 89 94
39 32 33 33 36 40 44 47 50 53 50 49 60 62 60 60 64 68 68 69 70 74 79 84 88 91 94
32 31 33 36 39 43 46 48 54 49 46 55 60 58 55 60 63 64 67 68 75 80 84 88 89 91 93
33 34 36 35 40 41 44 50 49 45 55 59 56 55 57 59 62 64 65 73 79 84 85 87 89 91 93
29 29 33 35 36 40 44 48 50 44 58 60 50 57 58 63 63 60 68 77 82 83 86 87 89 90 89
24 28 31 34 37 40 44 48 51 52 57 55 51 62 62 63 62 63 73 80 81 83 86 85 86 84 84
24 27 29 32 36 40 43 48 45 45 52 54 60 66 66 65 58 68 77 80 79 81 83 84 81 82 87
23 25 28 33 38 40 45 49 47 49 50 62 62 72 68 61 63 73 74 75 75 80 82 79 82 88 81
25 28 32 36 40 41 42 46 51 53 53 65 66 74 72 61 71 69 71 71 77 78 78 79 85 82 74
27 30 34 36 38 41 42 46 51 52 54 60 63 69 68 75 72 74 71 77 77 75 76 77 82 80 74
28 32 35 38 42 43 45 46 45 49 52 54 59 64 69 76 80 74 73 75 74 74 78 79 79 76 64
31 33 38 40 42 44 46 49 48 48 51 53 55 59 64 70 74 75 79 76 70 79 77 76 66 57 42
32 35 37 40 44 48 48 52 54 56 55 54 55 59 64 64 64 67 68 69 72 71 69 63 53 35 36
34 36 39 42 44 47 49 53 56 58 60 58 57 56 57 56 56 55 61 64 62 63 67 60 29 33 48
35 37 40 43 46 48 50 53 54 56 59 61 63 65 64 58 45 53 59 62 60 60 30 24 27 44 44
35 38 40 44 48 50 49 50 52 55 58 58 59 62 67 72 57 51 66 65 62 50 22 25 26 44 41
Wind_Direction
297 296 297 295 302 309 314 315 316 319 322 326 326 325 326 326 327 328 327 327 327 326 326 326 325 325 324
292 292 300 309 314 316 318 320 320 320 322 326 327 326 328 329 330 329 330 329 329 329 328 327 327 325 323
289 301 308 312 314 315 318 321 324 324 326 326 325 329 331 333 333 332 332 332 332 331 330 328 327 326 324
298 304 312 313 314 314 318 323 322 329 330 328 328 333 335 335 335 335 335 335 333 332 330 329 328 327 325
303 305 306 310 311 322 324 325 328 331 328 329 335 338 338 338 338 338 337 336 335 333 332 330 329 328 327
304 310 309 312 323 327 328 327 327 338 333 334 342 340 341 340 340 340 339 337 335 334 333 331 330 329 328
318 318 317 323 322 325 326 328 328 336 339 340 346 341 342 342 342 342 340 338 337 336 335 334 333 332 332
330 328 331 333 331 332 334 335 343 346 347 343 345 342 344 343 344 343 341 340 339 338 337 336 336 335 333
355 355 349 343 340 340 339 341 345 347 352 346 346 343 345 347 347 345 343 341 342 340 339 339 338 336 336
355 353 350 348 349 353 354 350 347 348 354 348 347 347 345 350 347 347 346 346 344 343 342 342 340 339 340
354 352 350 356 359 358 359 357 353 352 355 353 349 349 347 343 347 347 348 346 345 346 346 345 343 342 342
357 350 352 358 356 359 0 0 0 356 356 356 350 349 347 345 346 348 349 348 348 349 347 345 345 345 348
354 4 358 359 1 2 2 1 2 2 0 358 355 353 350 347 345 347 348 350 352 349 350 350 353 356 355
11 4 5 4 2 1 3 2 0 359 2 2 360 356 352 351 351 351 354 354 352 355 356 356 360 2 3
6 6 4 4 6 7 5 3 1 360 360 1 2 360 356 354 356 358 358 358 360 360 360 0 311 7 295
8 9 8 8 6 6 5 4 3 3 1 2 2 2 3 5 10 5 4 3 4 5 357 339 350 303 298
12 11 10 8 5 4 6 7 6 4 3 4 5 5 2 1 8 16 4 5 7 11 341 3 323 299 299